Skip Page Navigation
NASA JPL Caltech
NASA Logo - Jet Propulsion Laboratory + View the NASA Portal
+ Center for Near-Earth Object Studies
JPL Home Earth Solar System Stars & Galaxies Technology
JPL Solar System Dynamics
BODIES ORBITS EPHEMERIDES TOOLS PHYSICAL DATA DISCOVERY FAQ SITE MAP
IMPORTANT: The SSD Announcement email list is now available. Major changes are coming in the near future, including possible hostname and/or URL changes. To be notified of such changes, subscribe to this email list.

Please visit this page for more details.


JPL Small-Body Database Browser
Search: [ help ]  
214891 (2007 RV300)
Classification: Main-belt Asteroid          SPK-ID: 2214891
Ephemeris | Orbit Diagram | Orbital Elements | Mission Design | Physical Parameters | Discovery Circumstances ]

[ show orbit diagram ]
Orbital Elements at Epoch 2458600.5 (2019-Apr-27.0) TDB
Reference: JPL 12 (heliocentric ecliptic J2000)
 Element Value Uncertainty (1-sigma)   Units 
e .09866900666233455 5.7592e-08  
a 2.409109124293196 1.8821e-08 au
q 2.17140472005802 1.4554e-07 au
i 6.135349013965505 6.5027e-06 deg
node 178.0910925770064 4.9596e-05 deg
peri 235.5135817534576 6.0402e-05 deg
M 358.5056335605565 3.9205e-05 deg
tp 2458606.169408368263
(2019-May-02.66940837)
0.00014877 TDB
period 1365.787506131923
3.74
1.6005e-05
4.382e-08
d
yr
n .2635841947475153 3.0889e-09 deg/d
Q 2.646813528528372 2.0678e-08 au
  Orbit Determination Parameters
   # obs. used (total)      191  
   data-arc span      9504 days (26.02 yr)  
   first obs. used      1992-09-27  
   last obs. used      2018-10-05  
   planetary ephem.      DE431  
   SB-pert. ephem.      SB431-N16  
   condition code      0  
   norm. resid. RMS      .57122  
   source      ORB  
   producer      Otto Matic  
   solution date      2019-Jul-14 11:02:32  

Additional Information
 Earth MOID = 1.1881 au 
 Jupiter MOID = 2.65619 au 
 T_jup = 3.506 
[ show covariance matrix ]

Ephemeris | Orbit Diagram | Orbital Elements | Mission Design | Physical Parameters | Discovery Circumstances ]

Physical Parameter Table
Parameter Symbol Value Units Sigma Reference Notes
absolute magnitude H 17.1   n/a MPO454543  

214891 (2007 RV300)          Discovered 2007-Sep-12 by Mt. Lemmon Survey at Mount Lemmon
Reference: 20090509/Numbers.arcLast Updated: 2009-05-11
Ephemeris | Orbit Diagram | Orbital Elements | Mission Design | Physical Parameters | Discovery Circumstances ]
ABOUT SSD CREDITS/AWARDS PRIVACY/COPYRIGHT GLOSSARY LINKS
FirstGov 2019-Dec-10 18:59 UT
(server date/time)  
NASA Home Page
Site Manager:   Ryan S. Park
Webmaster  Alan B. Chamberlin